Aérodrome :
LOGIN :

S'inscrire | Disclaimer

   EN    FR    IT 

 










Légende :    VFR   VFR Marginal   IFR   IFR Intensif   IFR Très Intensif
Visi : 
Plafond : 
>= 8 km
>= 3000ft
5 à 8 km
1000 à 3000 ft
1500m à 5 km
500 à 1000 ft
800 à 1500m
200 à 500 ft
< 800m
< 200 ft
Symboles :   Orages  Brouillard  Fortes neiges  Fortes précipitations  Vent > 20 kt
SIGMETs :   Divers  Orages  Givrage  Turbulence  Onde Orograph.  Cendres Volcan.







- Altitude de l'aérodrome : 302 ft
- Code IATA : CGN


EDDK - Cologne Bonn

DERNIER METAR :
  • 191120Z 15008KT 9999 FEW022 BKN100 03/M02 Q1020 NOSIG

METARs EXPIRÉS :
  • 191050Z 17007KT 140V200 9999 FEW022 BKN100 03/M02 Q1020 NOSIG
  • 191020Z 17008KT 140V200 9999 FEW020 BKN100 02/M02 Q1020 NOSIG
  • 190950Z 16004KT 130V190 CAVOK 02/M02 Q1020 NOSIG
  • 190920Z 15005KT CAVOK 01/M02 Q1020 NOSIG
  • 190850Z 14004KT 090V180 CAVOK 01/M02 Q1021 NOSIG

TAF TAF EDDK
Valide du 19 à 12h jusqu'au 20 à 18h UTC


191100Z 1912/2018 16005KT CAVOK
BECMG 1915/1917 10004KT
BECMG 2009/2011 03006KT
Pas de NOTAMs connus pour ce terrain.



MET'MAP, la Météo Aéronautique d'un coup d'oeil ! - Copyright ORBIFLY Décembre 2007 - Disclaimer

ORBIFLY MET'MAP TEAM :

Programmation & Développement : Alexandra Zaïnal
Conception & Développement : Baudouin d'Aumeries
Co-Programmation & Développement : Marc-Olivier Méhu
Soutien technique & logistique : Manuel Goepfert

Contact : metmap@orbifly.com




SOURCES & CREDITS :

   NOAA